Location: Geçitköy
(36.7327°N, 29.8010°E)
Time: 05:07:33
(UTC+00:00)

Aurora 2 Rocket - Pass Details

Date: 12 January 2026
Orbit: 385 x 1537 km, 25.0° (Epoch: 14 February)

Event Time Altitude Azimuth Distance (km) Brightness Sun altitude
Rises 16:19:15 0° 229° (SW) 2,244 6.7 -14.6°
Reaches altitude 10° 16:22:30 10° 190° (S) 1,451 4.8 -15.3°
Maximum altitude 16:23:30 11° 172° (S) 1,419 4.5 -15.4°
Drops below altitude 10° 16:24:32 10° 154° (SSE) 1,520 4.5 -15.6°
Enters shadow 16:25:24 - 142° (SE) 1,693 4.6 -15.8°
